Alamosa, CO

10:13 AM MDT on July 23, 2017 (GMT -0600)
San Luis Valley Regional / Bergman Field

Weather History for KALS - January, 2013

Change the Weather History Date:

Monday, January 14, 2013

  Actual Average Record
Temperature  
Mean Temperature -4 °F 16 °F  
Max Temperature 12 °F 34 °F 54 °F (1969)
Min Temperature -21 °F -2 °F -33 °F (1964)
Degree Days  
Heating Degree Days 69 49  
Month to date heating degree days 967 686  
Since 1 July heating degree days 4661 4323  
Cooling Degree Days 0 0  
Month to date cooling degree days 0 0  
Year to date cooling degree days 0 0  
Moisture  
Dew Point -14 °F    
Average Humidity 71    
Maximum Humidity 83    
Minimum Humidity 58    
Precipitation  
Precipitation T in 0.01 in 0.20 in (1960)
Month to date precipitation 0.01 0.11  
Year to date precipitation 0.01 0.11  
Snow  
Snow T in 0.10 in 6.60 in (1960)
Month to date snowfall 0.4 1.6  
Since 1 July snowfall 12.5 11.9  
Snow Depth 3.00 in    
Sea Level Pressure  
Sea Level Pressure 30.22 in    
Wind  
Wind Speed 3 mph (WNW)    
Max Wind Speed 10 mph    
Max Gust Speed 12 mph    
Visibility 9 miles    
Events Snow    
T = Trace of Precipitation, MM = Missing Value Source: NWS Daily Summary

Daily Weather History Graph

Daily Weather History Graph

Search for Another Location

Airport or City:

Trip Planner

Search our weather history database for the weather conditions in past years. The results will help you decide how hot, cold, wet, or windy it might be!

Date:

Astronomy

Jan. 14, 2013 Rise Set
Actual Time 7:17 AM MST 5:08 PM MST
Civil Twilight 6:48 AM MST 5:37 PM MST
Nautical Twilight 6:16 AM MST 6:09 PM MST
Astronomical Twilight 5:44 AM MST 6:40 PM MST
Moon 8:57 AM MST (1/14) 8:51 PM MST (1/14)
Length of Visible Light 10h 48m
Length of Day
9h 51m
Waxing Crescent, 12% of the Moon is Illuminated
Jan 14
Waxing Crescent
Jan 18
First Quarter
Jan 26
Full
Feb 3
Last Quarter
Feb 10
New

Hourly Weather History & Observations

Time (MST) Temp. Windchill Dew Point Humidity Pressure Visibility Wind Dir Wind Speed Gust Speed Precip Events Conditions
12:52 AM -16.1 °F -30.6 °F -20.0 °F 82% 30.31 in 10.0 mi NW 5.8 mph - N/A   Clear
1:52 AM -18.4 °F - -23.8 °F 76% 29.88 in 10.0 mi Calm Calm - N/A   Clear
2:52 AM -20.0 °F -30.7 °F -25.1 °F 78% 30.30 in 10.0 mi SE 3.5 mph - N/A   Mostly Cloudy
3:52 AM -18.9 °F - -26.0 °F 70% 30.30 in 10.0 mi Calm Calm - N/A   Clear
4:52 AM -20.0 °F - -26.0 °F 74% 30.34 in 10.0 mi Calm Calm - N/A   Scattered Clouds
5:52 AM -18.9 °F - -24.0 °F 78% 30.40 in 8.0 mi Calm Calm - N/A   Scattered Clouds
6:09 AM -16.6 °F - -22.0 °F 76% 29.89 in 9.0 mi Calm Calm - N/A   Mostly Cloudy
6:24 AM -16.6 °F - -20.2 °F 84% 29.89 in 6.0 mi Calm Calm - N/A   Haze
6:50 AM -14.8 °F -24.8 °F -20.2 °F 77% 29.90 in 7.0 mi West 3.5 mph - N/A   Mostly Cloudy
6:52 AM -16.1 °F -26.2 °F -20.9 °F 79% 30.44 in 9.0 mi WNW 3.5 mph - N/A   Mostly Cloudy
7:52 AM -13.0 °F -25.1 °F -18.9 °F 75% 30.42 in 6.0 mi West 4.6 mph - N/A   Haze
8:30 AM -11.2 °F - -16.6 °F 77% 29.92 in 1.8 mi Calm Calm - 0.00 in Snow Light Snow
8:52 AM -7.1 °F - -11.0 °F 83% 30.41 in 1.2 mi Calm Calm - 0.00 in Snow Light Snow
9:08 AM -5.8 °F - -9.4 °F 84% 29.92 in 3.0 mi Calm Calm - 0.00 in   Overcast
9:40 AM -2.2 °F - -7.6 °F 78% 29.92 in 9.0 mi Calm Calm - 0.00 in   Scattered Clouds
9:52 AM -0.0 °F -7.9 °F -8.0 °F 69% 30.35 in 10.0 mi NNW 3.5 mph - 0.00 in   Partly Cloudy
10:52 AM 5.0 °F -2.1 °F -5.1 °F 63% 30.30 in 10.0 mi North 3.5 mph - N/A   Clear
11:52 AM 8.1 °F 1.4 °F -2.9 °F 61% 30.25 in 10.0 mi North 3.5 mph - N/A   Clear
12:52 PM 8.6 °F - -2.2 °F 62% 29.84 in 10.0 mi Calm Calm - N/A   Clear
1:52 PM 12.0 °F - -0.9 °F 56% 30.22 in 10.0 mi Calm Calm - N/A   Clear
2:52 PM 10.0 °F - -0.9 °F 61% 30.25 in 10.0 mi Calm Calm - N/A   Partly Cloudy
3:52 PM 10.0 °F - -0.9 °F 61% 30.26 in 10.0 mi Calm Calm - N/A   Clear
4:52 PM 6.1 °F -6.8 °F -2.9 °F 67% 30.32 in 10.0 mi North 8.1 mph - N/A   Clear
5:52 PM -0.0 °F -13.0 °F -5.1 °F 79% 30.38 in 10.0 mi NW 6.9 mph - N/A   Scattered Clouds
6:52 PM -9.0 °F -25.2 °F -13.0 °F 83% 30.44 in 10.0 mi WNW 8.1 mph - N/A   Clear
7:29 PM -7.6 °F -22.1 °F -9.4 °F 92% 29.93 in 10.0 mi WNW 6.9 mph - N/A   Mostly Cloudy
7:52 PM -5.1 °F -20.4 °F -9.0 °F 83% 30.39 in 10.0 mi NW 8.1 mph - N/A   Overcast
8:20 PM -7.6 °F - -13.0 °F 77% 29.93 in 10.0 mi Calm Calm - N/A   Overcast
8:52 PM -11.9 °F -23.8 °F -16.1 °F 82% 30.42 in 10.0 mi SSW 4.6 mph - N/A   Mostly Cloudy
9:52 PM -14.1 °F -28.3 °F -18.0 °F 82% 30.39 in 10.0 mi SSW 5.8 mph - N/A   Clear
10:52 PM -16.1 °F -30.6 °F -22.0 °F 74% 30.38 in 10.0 mi WSW 5.8 mph - N/A   Clear
11:52 PM -16.1 °F - -20.9 °F 79% 30.36 in 10.0 mi Calm Calm - N/A   Clear